DW3929 Weather Reports


Display with metric or nautical units.
time (UTC)temp
F
wind
direction
speed
MPH
gust
MPH
rain 1hr
in
rain 24hr
in
rain mn
in
humidity
%
barometer
mb
20260503231819 81 360 3.0 11.0 0.00 0.01 0.01 43 1016.7
20260503231316 81 360 4.0 11.0 0.00 0.01 0.01 43 1016.6
20260503230816 81 360 4.0 9.0 0.00 0.01 0.01 41 1016.6
20260503230313 80 360 3.0 10.0 0.00 0.01 0.01 45 1016.7
20260503225831 80 360 5.0 10.0 0.00 0.01 0.01 43 1016.8
20260503225330 81 360 4.0 9.0 0.00 0.01 0.01 42 1016.8
20260503224828 82 360 3.0 11.0 0.00 0.01 0.01 39 1016.9
20260503224345 83 360 7.0 12.0 0.00 0.01 0.01 40 1017.1
20260503223825 83 360 7.0 12.0 0.00 0.01 0.01 39 1017.1
20260503223324 84 360 4.0 9.0 0.00 0.01 0.01 40 1017.1
20260503222821 83 360 2.0 9.0 0.00 0.01 0.01 42 1017.2
20260503222341 83 360 4.0 14.0 0.00 0.01 0.01 39 1017.2
20260503221839 84 360 6.0 14.0 0.00 0.01 0.01 37 1017.2
20260503221317 84 360 4.0 11.0 0.00 0.01 0.01 40 1017.3
20260503220817 84 360 5.0 11.0 0.00 0.01 0.01 41 1017.5
20260503220337 84 360 4.0 10.0 0.00 0.01 0.01 39 1017.5
20260503215815 84 360 4.0 10.0 0.00 0.01 0.01 41 1017.6
20260503215314 84 360 4.0 10.0 0.00 0.01 0.01 42 1017.6
20260503214812 83 360 6.0 12.0 0.00 0.01 0.01 39 1017.6
20260503214332 83 360 8.0 12.0 0.00 0.01 0.01 42 1017.6
20260503213831 83 360 2.0 10.0 0.00 0.01 0.01 43 1017.8
20260503213331 83 360 5.0 10.0 0.00 0.01 0.01 39 1018.0
20260503212830 83 360 4.0 9.0 0.00 0.01 0.01 39 1018.1
20260503212326 82 360 3.0 13.0 0.00 0.01 0.01 43 1018.2
20260503211848 82 360 9.0 14.0 0.00 0.01 0.01 40 1018.4
20260503211327 82 360 6.0 13.0 0.00 0.01 0.01 42 1018.4
20260503210826 82 360 4.0 12.0 0.00 0.01 0.01 42 1018.5
20260503210325 82 360 6.0 12.0 0.00 0.01 0.01 38 1018.5
20260503205825 83 360 5.0 13.0 0.00 0.01 0.01 41 1018.7
20260503205324 82 360 5.0 13.0 0.00 0.01 0.01 40 1018.8
20260503204824 82 360 4.0 17.0 0.00 0.01 0.01 40 1018.9
20260503204340 82 360 9.0 17.0 0.00 0.01 0.01 38 1019.0
20260503203817 83 360 5.0 12.0 0.00 0.01 0.01 39 1019.0
20260503203317 83 360 3.0 12.0 0.00 0.01 0.01 42 1019.1
20260503202814 82 360 3.0 12.0 0.00 0.01 0.01 40 1019.2
20260503202312 82 360 5.0 12.0 0.00 0.01 0.01 43 1019.2
20260503201812 83 360 4.0 9.0 0.00 0.01 0.01 42 1019.3
20260503201332 82 360 4.0 9.0 0.00 0.01 0.01 40 1019.3
20260503200831 83 360 5.0 13.0 0.00 0.01 0.01 38 1019.4
20260503200332 83 360 5.0 13.0 0.00 0.01 0.01 38 1019.6
20260503195830 83 360 3.0 8.0 0.00 0.01 0.01 41 1019.6
20260503195329 82 360 4.0 13.0 0.00 0.01 0.01 40 1019.6
20260503194829 82 360 4.0 12.0 0.00 0.01 0.01 43 1019.8
20260503194348 82 360 6.0 12.0 0.00 0.01 0.01 40 1019.7
20260503193845 82 360 5.0 10.0 0.00 0.01 0.01 39 1019.8
20260503193325 82 360 5.0 11.0 0.00 0.01 0.01 39 1020.0
20260503192824 82 360 5.0 11.0 0.00 0.01 0.01 41 1020.1
20260503192324 82 360 4.0 13.0 0.00 0.01 0.01 38 1020.0
20260503191823 82 360 4.0 13.0 0.00 0.01 0.01 41 1020.2
20260503191320 82 360 6.0 12.0 0.00 0.01 0.01 38 1020.3
20260503190820 82 360 5.0 11.0 0.00 0.01 0.01 42 1020.3
20260503190320 81 360 5.0 11.0 0.00 0.01 0.01 40 1020.5
20260503185840 81 360 5.0 11.0 0.00 0.01 0.01 41 1020.5
20260503185317 81 360 4.0 11.0 0.00 0.01 0.01 38 1020.5
20260503184817 81 360 7.0 12.0 0.00 0.01 0.01 40 1020.7
20260503184316 82 360 7.0 12.0 0.00 0.01 0.01 42 1020.7
20260503183837 82 360 4.0 11.0 0.00 0.01 0.01 45 1020.6
20260503183313 82 360 5.0 11.0 0.00 0.01 0.01 43 1020.8
20260503182813 81 360 3.0 11.0 0.00 0.01 0.01 43 1020.9
20260503182315 81 360 4.0 15.0 0.00 0.01 0.01 41 1021.0
20260503181814 81 360 9.0 15.0 0.00 0.01 0.01 43 1021.1
20260503181335 81 360 5.0 11.0 0.00 0.01 0.01 40 1021.2
20260503180830 81 360 3.0 14.0 0.00 0.01 0.01 43 1021.3
20260503180317 81 360 6.0 14.0 0.00 0.01 0.01 41 1021.4
20260503175851 82 360 4.0 14.0 0.00 0.01 0.01 42 1021.4
20260503175329 81 360 4.0 9.0 0.00 0.01 0.01 44 1021.5
20260503174826 81 360 3.0 12.0 0.00 0.01 0.01 44 1021.6
20260503174326 81 360 6.0 12.0 0.00 0.01 0.01 47 1021.7
20260503173825 80 360 6.0 11.0 0.00 0.01 0.01 46 1021.8
20260503173324 80 360 3.0 10.0 0.00 0.01 0.01 45 1021.8
20260503172839 80 360 5.0 10.0 0.00 0.01 0.01 47 1022.0
20260503172315 80 360 2.0 19.0 0.00 0.01 0.01 46 1022.0
20260503171814 79 360 4.0 19.0 0.00 0.01 0.01 49 1022.2
20260503171334 80 360 6.0 19.0 0.00 0.01 0.01 47 1022.2
20260503170813 79 360 6.0 12.0 0.00 0.01 0.01 47 1022.3
20260503170313 79 360 6.0 12.0 0.00 0.01 0.01 46 1022.4
20260503150828 73 360 4.0 8.0 0.00 0.01 0.01 66 1022.9
20260503150326 72 360 2.0 6.0 0.00 0.01 0.01 67 1022.8
20260503131323 54 360 0.0 2.0 0.01 0.01 0.01 99 1022.5
20260503130842 53 360 0.0 0.0 0.01 0.01 0.01 99 1022.4
20260503130341 52 360 0.0 0.0 0.01 0.01 0.01 99 1022.3
20260503110815 49 360 0.0 0.0 0.00 0.00 0.00 97 1021.6
20260503110314 49 360 0.0 0.0 0.00 0.00 0.00 97 1021.5
20260503090328 50 360 0.0 0.0 0.00 0.00 0.00 96 1020.9
20260503081318 51 360 0.0 0.0 0.00 0.00 0.00 96 1020.9
20260503080836 51 360 0.0 0.0 0.00 0.00 0.00 96 1020.9
20260503080315 51 360 0.0 0.0 0.00 0.00 0.00 96 1020.8
20260503072812 52 360 0.0 0.0 0.00 0.00 0.00 96 1021.3
20260503072352 52 360 0.0 0.0 0.00 0.00 0.00 96 1021.2
20260503071830 52 360 0.0 0.0 0.00 0.00 0.00 96 1021.2
20260503071330 52 360 0.0 0.0 0.00 0.00 0.00 95 1021.2
20260503070828 52 360 0.0 0.0 0.00 0.00 0.00 95 1021.3
20260503070328 52 360 0.0 0.0 0.00 0.00 0.00 96 1021.3
20260503060313 53 360 0.0 0.0 0.00 0.00 0.00 95 1021.4
20260503054819 54 360 0.0 0.0 0.00 0.00 0.00 95 1021.3
20260503054339 54 360 0.0 0.0 0.00 0.00 0.00 95 1021.3
20260503053818 54 360 0.0 0.0 0.00 0.00 0.00 95 1021.3
20260503053318 54 360 0.0 0.0 0.00 0.00 0.00 95 1021.3
20260503052819 54 360 0.0 0.0 0.00 0.00 0.00 95 1021.3
20260503052317 54 360 0.0 0.0 0.00 0.00 0.00 95 1021.2
20260503051816 54 360 0.0 0.0 0.00 0.00 0.00 94 1021.3
20260503051315 54 360 0.0 0.0 0.00 0.00 0.00 94 1021.3
20260503050814 54 360 0.0 0.0 0.00 0.00 0.00 94 1021.2
20260503050353 54 360 0.0 0.0 0.00 0.00 0.00 94 1021.2
20260503045831 55 360 0.0 0.0 0.00 0.00 0.00 94 1021.4
20260503045331 55 360 0.0 0.0 0.00 0.00 0.00 94 1021.3
20260503044830 55 360 0.0 0.0 0.00 0.00 0.00 94 1021.4
20260503044331 55 360 0.0 0.0 0.00 0.00 0.00 94 1021.4
20260503043831 55 360 0.0 0.0 0.00 0.00 0.00 94 1021.4
20260503043330 55 360 0.0 0.0 0.00 0.00 0.00 94 1021.4
20260503042850 55 360 0.0 0.0 0.00 0.00 0.00 94 1021.3
20260503042350 55 360 0.0 0.0 0.00 0.00 0.00 93 1021.2
20260503041828 56 360 0.0 0.0 0.00 0.00 0.00 93 1021.1
20260503041327 56 360 0.0 0.0 0.00 0.00 0.00 93 1021.2
20260503040845 56 360 0.0 0.0 0.00 0.00 0.00 93 1021.2
20260503040324 56 360 0.0 0.0 0.00 0.00 0.00 93 1021.2
20260503035825 56 360 0.0 0.0 0.00 0.00 0.00 92 1021.1
20260503035325 56 360 0.0 0.0 0.00 0.00 0.00 93 1021.1
20260503034845 56 360 0.0 0.0 0.00 0.00 0.00 92 1021.0
20260503034322 57 360 0.0 0.0 0.00 0.00 0.00 92 1021.0
20260503033823 57 360 0.0 0.0 0.00 0.00 0.00 92 1020.9
20260503033323 57 360 0.0 0.0 0.00 0.00 0.00 92 1020.9
20260503032823 57 360 0.0 0.0 0.00 0.00 0.00 92 1020.8
20260503032321 57 360 0.0 0.0 0.00 0.00 0.00 91 1020.8
20260503031823 57 360 0.0 0.0 0.00 0.00 0.00 91 1020.5
20260503031342 58 360 0.0 0.0 0.00 0.00 0.00 91 1020.5
20260503030841 58 360 0.0 0.0 0.00 0.00 0.00 91 1020.6
20260503030320 58 360 0.0 0.0 0.00 0.00 0.00 91 1020.7
20260503025837 58 360 0.0 0.0 0.00 0.00 0.00 90 1020.6
20260503025338 59 360 0.0 0.0 0.00 0.00 0.00 89 1020.6
20260503024814 59 360 0.0 0.0 0.00 0.00 0.00 89 1020.4
20260503024314 59 360 0.0 0.0 0.00 0.00 0.00 88 1020.3
20260503023815 59 360 0.0 0.0 0.00 0.00 0.00 88 1020.2
20260503023315 60 360 0.0 0.0 0.00 0.00 0.00 87 1020.1
20260503022813 60 360 0.0 0.0 0.00 0.00 0.00 87 1020.1
20260503022315 60 360 0.0 0.0 0.00 0.00 0.00 86 1019.9
20260503021816 60 360 0.0 0.0 0.00 0.00 0.00 86 1019.8
20260503021316 61 360 0.0 0.0 0.00 0.00 0.00 85 1019.8
20260503020816 61 360 0.0 0.0 0.00 0.00 0.00 84 1019.7
20260503020316 61 360 0.0 0.0 0.00 0.00 0.00 83 1019.7
20260503015816 62 360 0.0 0.0 0.00 0.00 0.00 81 1019.7
20260503015313 62 360 0.0 0.0 0.00 0.00 0.00 80 1019.7
20260503014832 63 360 0.0 0.0 0.00 0.00 0.00 79 1019.7
20260503014331 63 360 0.0 0.0 0.00 0.00 0.00 78 1019.7
20260503013812 64 360 0.0 0.0 0.00 0.00 0.00 77 1019.6
20260503013331 64 360 0.0 0.0 0.00 0.00 0.00 76 1019.6
20260503012851 65 360 0.0 0.0 0.00 0.00 0.00 74 1019.6
20260503012350 65 360 0.0 0.0 0.00 0.00 0.00 73 1019.5
20260503011828 66 360 0.0 0.0 0.00 0.00 0.00 72 1019.5
20260503011348 66 360 0.0 0.0 0.00 0.00 0.00 71 1019.5
20260503010828 67 360 0.0 1.0 0.00 0.00 0.00 70 1019.4
20260503010348 67 360 0.0 1.0 0.00 0.00 0.00 68 1019.4
20260503005828 68 360 0.0 0.0 0.00 0.00 0.00 67 1019.4
20260503005329 68 360 0.0 1.0 0.00 0.00 0.00 67 1019.4
20260503004828 69 360 0.0 1.0 0.00 0.00 0.00 65 1019.3
20260503004327 69 360 0.0 0.0 0.00 0.00 0.00 64 1019.3
20260503003845 70 360 0.0 2.0 0.00 0.00 0.00 65 1019.2
20260503003342 71 360 0.0 3.0 0.00 0.00 0.00 62 1019.3
20260503002842 71 360 1.0 4.0 0.00 0.00 0.00 62 1019.2
20260503002318 72 360 1.0 4.0 0.00 0.00 0.00 59 1019.2
20260503001819 72 360 1.0 4.0 0.00 0.00 0.00 54 1019.1
20260503001317 72 360 2.0 5.0 0.00 0.00 0.00 52 1019.1
20260503000817 73 360 2.0 6.0 0.00 0.00 0.00 52 1019.1
20260503000319 73 360 2.0 8.0 0.00 0.00 0.00 50 1019.1
20260502235818 73 360 3.0 8.0 0.00 0.00 0.00 52 1019.1
20260502235318 73 360 2.0 5.0 0.00 0.00 0.00 51 1019.0
20260502234838 74 360 2.0 5.0 0.00 0.00 0.00 53 1019.0
20260502234315 74 360 1.0 5.0 0.00 0.00 0.00 52 1018.9
20260502233837 75 360 1.0 5.0 0.00 0.00 0.00 49 1018.9
20260502233315 75 360 1.0 6.0 0.00 0.00 0.00 48 1018.9
20260502232817 76 360 1.0 8.0 0.00 0.00 0.00 48 1018.9
20260502232317 76 360 1.0 9.0 0.00 0.00 0.00 48 1018.8